Location: Mount Cross
(36.6390°N, 79.4878°W)
Time: 08:09:11
(UTC+00:00)

Vanguard 1 Rocket - Pass Details

Date: 03 April 2023
Orbit: 654 x 4221 km, 34.3° (Epoch: 01 June)

Event Time Altitude Azimuth Distance (km) Brightness Sun altitude
Rises 05:07:24 0° 273° (W) 8,446 12.4 -48.0°
Reaches altitude 10° 05:13:33 10° 273° (W) 7,274 12.0 -48.1°
Enters shadow 05:31:08 55° 264° (W) 3,719 10.1 -48.1°
Maximum altitude 05:37:07 79° 192° (SSW) 2,899 - -48.0°
Drops below altitude 10° 05:49:34 10° 107° (ESE) 4,208 - -47.6°
Sets 05:52:06 0° 106° (ESE) 4,868 - -47.5°
